Wind_Speed
8 3 4 6 8 11 12 13 9 3 1 2 5 5 5 7 5 4 4 8 11 9 8 13 16 15 16 14 17 20 21 28 24 22 23 22 25 26 27 32 34 35 32 30 32 32 32 31 30 29 28 26 23 22 20 18 17 15 12 9 8 8 6 6 6 6 5 6 5 4 3 3 4 4 3 3 3 4 5 6 5 5 5 5 6 7
7 5 8 9 7 8 9 8 5 5 4 1 3 6 5 7 5 3 5 6 9 11 3 11 21 16 14 13 17 21 20 23 20 19 22 20 22 23 23 27 30 31 30 30 32 32 32 31 30 29 27 25 24 24 23 22 22 21 18 16 15 14 9 7 7 5 5 5 5 4 4 4 4 3 3 3 4 6 7 6 6 7 7 7 8 9
4 8 10 7 3 4 5 5 5 6 5 2 2 6 5 6 4 1 5 7 9 9 2 11 20 13 13 12 17 23 20 22 23 22 22 20 20 21 20 22 26 31 32 33 33 32 32 32 31 30 29 28 28 27 26 25 24 22 22 21 20 18 16 14 12 9 8 8 7 6 6 6 5 5 6 6 6 5 6 7 7 8 8 9 10 10
4 6 7 7 4 5 6 6 8 6 5 4 3 4 5 7 6 2 6 8 8 7 9 16 17 8 10 10 13 21 20 22 24 23 24 23 22 22 21 22 26 31 33 34 34 33 33 32 31 31 31 30 29 28 27 26 25 24 24 23 22 21 20 19 17 15 13 11 9 8 7 6 6 6 6 5 4 4 5 7 8 10 11 11 11 12
4 2 4 10 9 8 6 6 8 6 4 5 4 4 5 7 7 6 9 11 11 7 10 15 12 5 8 9 9 14 17 19 20 20 22 22 22 23 24 26 28 31 32 33 34 34 34 34 33 32 32 30 29 29 28 27 26 25 25 23 22 22 21 20 18 17 13 10 9 8 6 4 3 2 1 1 3 6 7 8 10 12 12 13 13 13
6 4 2 7 9 9 7 6 8 7 5 4 5 6 7 8 10 14 15 11 9 3 3 4 6 2 5 8 7 6 10 14 16 17 18 18 18 19 21 23 24 28 31 32 32 33 34 34 33 33 32 31 30 30 29 27 26 25 24 23 21 21 21 20 18 16 13 10 9 7 6 6 7 7 7 8 10 12 12 13 13 14 14 14 14 14
4 4 3 5 9 10 7 6 8 8 5 3 5 7 6 7 12 18 16 9 6 5 2 2 4 4 3 5 6 5 7 11 13 15 15 15 16 17 19 19 20 24 27 30 31 32 33 32 32 32 32 31 31 29 27 26 24 23 22 21 20 20 20 20 19 17 15 15 15 14 13 14 14 14 15 15 15 15 15 14 14 14 14 15 15 15
3 7 6 6 8 8 7 5 8 10 6 3 4 8 8 8 14 16 12 6 5 5 5 5 5 5 2 3 5 6 8 9 9 11 12 13 15 16 17 18 19 21 24 28 30 31 32 32 32 32 31 30 29 27 25 25 24 23 22 21 21 20 20 20 19 18 18 18 18 17 16 16 16 16 16 15 15 15 14 14 14 14 14 15 15 16
3 7 9 8 8 7 7 6 8 10 6 3 2 7 6 7 14 15 8 5 5 6 4 2 3 4 3 4 5 5 7 7 6 6 7 9 12 13 15 16 17 19 23 26 28 29 30 31 31 30 29 28 27 26 25 25 24 23 22 21 20 20 21 21 20 19 19 19 18 18 17 17 17 17 16 16 16 15 15 15 16 16 16 16 17 17
1 6 9 9 7 6 6 5 8 10 5 1 6 8 5 2 8 10 6 6 5 5 4 1 1 3 3 3 5 4 4 6 5 3 3 6 9 11 12 14 15 18 23 26 26 27 28 28 28 27 27 26 26 25 25 24 23 23 22 21 20 21 21 21 20 20 20 20 19 19 19 19 18 18 18 18 18 18 19 19 20 20 21 21 21 21
2 2 4 5 5 5 6 3 4 9 6 5 9 9 6 3 4 5 2 5 5 3 2 1 2 4 3 3 4 2 4 9 9 6 4 3 6 10 12 13 14 17 21 23 24 25 25 25 25 24 24 25 24 24 23 23 23 22 22 21 20 21 21 20 20 20 19 20 20 20 20 20 20 20 20 20 21 21 22 22 23 24 24 24 25 25
2 1 1 2 2 4 7 5 3 5 8 6 5 6 5 1 3 4 3 2 4 2 1 1 2 4 3 2 3 4 7 11 10 8 9 8 7 10 13 14 16 17 19 21 22 22 22 22 22 22 23 23 22 22 22 23 22 22 22 21 21 21 21 21 20 20 20 19 20 20 20 20 20 21 21 22 23 23 23 24 24 25 25 25 26 26
1 0 1 1 1 3 6 5 4 2 5 4 3 6 5 1 2 3 1 2 3 2 2 2 2 3 2 1 4 8 10 11 10 10 11 11 10 11 13 15 16 18 19 19 19 19 20 20 20 20 21 21 21 21 21 22 22 22 23 22 22 22 22 22 21 21 21 21 21 21 21 21 21 21 21 22 22 23 24 24 25 26 26 27 27 27
2 1 3 3 2 3 3 6 2 1 4 4 4 5 3 2 3 3 2 2 2 3 2 3 3 2 1 1 5 8 9 12 14 13 13 12 11 12 13 14 15 16 16 17 17 17 18 18 19 19 20 20 20 20 20 21 21 22 22 22 22 22 22 21 21 21 21 21 22 22 22 22 22 22 22 23 23 23 24 24 25 26 26 27 27 28
4 4 2 2 1 2 2 6 5 4 4 3 2 3 3 2 3 3 3 3 3 3 2 3 2 1 1 2 6 9 12 16 17 16 15 13 11 12 12 12 11 12 13 14 14 15 16 16 17 18 18 19 18 19 19 20 21 21 22 22 22 22 22 22 22 22 22 22 22 22 22 23 23 23 23 23 24 24 25 25 26 26 27 27 27 28
4 3 2 2 1 2 3 3 4 6 4 1 1 3 1 2 4 4 2 3 5 4 2 2 2 1 2 5 7 10 13 15 16 16 14 12 12 12 11 9 9 10 12 13 13 13 13 13 15 16 16 17 17 18 18 19 19 20 21 22 22 22 22 22 23 23 23 23 22 22 23 23 23 23 23 24 24 25 25 26 26 26 27 27 28 28
2 3 4 3 3 5 3 1 2 4 3 1 2 0 2 1 7 7 3 4 5 3 2 2 2 2 2 3 6 9 10 11 14 15 15 14 15 13 12 12 11 12 12 11 11 11 10 10 11 13 14 15 15 16 17 18 18 20 20 21 21 22 22 22 23 23 23 23 23 23 23 23 23 23 24 24 24 24 25 25 26 26 26 27 28 28
2 4 3 3 6 5 5 5 5 3 3 3 2 3 1 4 5 5 3 3 4 3 2 1 2 3 3 2 6 10 11 11 13 15 16 17 17 16 15 15 13 13 12 11 10 9 9 8 8 10 11 13 14 15 16 17 18 19 20 21 22 22 23 23 23 23 24 24 24 24 23 23 23 23 23 23 23 23 24 24 24 25 25 26 27 28
2 4 3 4 6 2 6 7 4 6 3 3 4 3 2 4 3 3 3 3 2 2 1 1 1 4 5 4 9 14 15 14 14 14 16 18 19 18 17 17 16 14 12 11 10 8 7 7 6 7 9 10 12 13 14 15 16 18 20 21 22 23 23 23 23 24 25 25 25 25 25 25 24 24 23 23 23 24 24 24 25 25 26 26 27 27
2 3 1 4 3 2 5 5 2 4 6 1 3 2 1 2 4 2 2 4 4 4 2 2 1 4 4 5 11 16 16 16 16 13 14 19 21 20 20 20 18 16 13 12 10 8 7 6 5 5 7 9 11 12 13 14 15 17 18 19 21 21 21 22 23 23 24 25 25 25 25 25 25 25 25 25 25 26 26 26 27 27 27 27 28 28
2 3 3 2 4 3 2 1 3 2 3 1 3 3 2 3 2 2 2 2 4 5 3 3 2 5 2 2 9 16 15 16 18 15 16 21 22 22 23 23 20 17 14 12 10 9 7 5 4 4 6 8 9 11 12 13 14 16 17 18 19 20 21 21 22 23 24 24 25 25 25 25 25 25 25 25 25 26 26 27 27 28 28 28 28 29
2 3 4 2 4 3 1 3 4 4 4 3 3 2 2 3 3 4 3 1 3 4 4 5 2 5 2 1 5 12 14 17 21 20 19 22 24 24 25 24 22 19 15 12 11 9 7 5 4 3 4 7 9 10 11 12 13 15 16 17 17 18 20 21 22 23 24 25 25 26 26 26 26 26 26 26 26 26 27 27 27 28 28 28 28 29
2 4 5 4 1 1 3 3 1 3 3 2 2 3 2 2 4 5 4 3 2 3 2 4 1 4 2 4 4 11 18 21 25 24 22 23 26 27 26 24 22 20 16 12 10 9 7 5 3 2 3 6 7 9 10 10 11 13 14 15 16 18 19 21 22 23 24 25 25 26 26 26 26 26 27 27 27 27 27 27 27 27 27 27 27 27
5 4 4 3 2 4 4 4 3 1 2 3 3 2 2 1 2 4 5 4 4 2 1 4 1 4 3 5 2 14 20 22 24 26 25 26 28 29 28 26 24 21 18 14 10 9 7 5 3 1 2 4 6 7 8 9 10 12 14 15 17 18 19 20 21 23 24 25 25 25 26 25 26 26 26 26 27 27 27 27 27 27 27 27 27 27
4 2 3 4 2 5 5 4 4 4 3 3 2 3 3 2 3 3 2 3 3 2 3 5 2 5 2 4 3 14 18 19 23 27 29 30 30 30 29 28 25 23 20 16 12 9 8 6 4 1 1 3 5 7 8 10 11 13 14 16 17 18 20 21 22 23 24 24 25 25 25 25 25 25 26 26 26 26 26 26 27 27 27 28 28 28
2 2 2 5 5 3 2 2 2 3 2 1 2 5 5 5 4 1 2 4 2 2 3 4 4 3 2 1 4 10 13 15 19 25 29 31 32 32 31 29 26 24 21 18 13 10 8 7 5 2 1 3 5 7 8 9 11 13 14 15 17 18 19 20 21 23 24 24 25 25 25 25 25 25 25 25 25 25 25 26 26 26 27 27 28 28
5 4 3 5 6 5 5 4 4 1 2 1 3 6 5 4 3 3 4 3 3 3 1 2 5 5 4 6 6 9 11 12 16 23 27 30 32 33 32 29 27 23 21 18 14 10 9 8 5 2 1 3 4 6 8 9 10 12 13 15 16 17 19 20 21 22 23 24 25 25 25 25 25 25 25 25 26 26 26 26 26 27 27 28 28 29
5 5 5 5 6 2 2 2 4 1 3 2 1 3 5 5 4 6 5 2 4 6 1 4 7 8 9 12 12 12 12 12 17 25 29 30 32 33 31 29 26 24 22 20 17 13 10 8 6 3 2 3 5 6 8 9 11 12 13 15 16 17 19 19 20 22 22 23 24 25 25 25 25 25 25 25 26 26 27 27 27 28 28 28 29 29
6 3 3 3 5 4 4 6 4 3 3 2 2 2 3 4 4 5 3 3 5 5 4 6 10 8 8 13 15 16 19 20 24 30 31 31 32 32 31 29 28 26 24 22 19 15 11 8 5 3 3 4 5 7 8 10 11 12 13 15 15 17 18 19 20 21 22 23 23 23 23 23 23 23 23 24 25 25 26 27 27 27 28 28 29 29
4 2 3 3 4 6 7 7 6 6 3 1 2 1 1 2 4 5 3 2 4 3 3 7 10 8 6 10 16 20 24 23 23 26 28 30 32 32 32 31 30 28 26 23 20 17 12 8 5 4 4 5 6 7 8 9 10 12 13 14 15 16 18 18 19 20 20 21 21 21 21 21 21 22 23 23 24 25 26 26 27 27 28 28 29 29
4 2 2 4 5 6 7 7 8 7 3 0 3 4 1 3 3 2 3 3 4 3 2 6 6 7 4 8 15 21 23 20 21 25 28 31 33 33 32 32 31 30 27 24 22 18 14 9 6 5 5 5 6 8 9 9 10 11 12 13 14 16 17 18 18 19 19 20 21 21 21 21 22 23 23 24 25 25 26 26 27 28 29 30 31 31
5 3 3 5 5 4 6 8 8 7 5 3 5 6 3 3 2 1 2 3 4 5 5 5 3 5 4 8 13 20 24 23 24 27 29 31 33 34 35 34 33 31 28 26 23 20 16 12 9 6 6 6 7 8 9 9 10 10 11 13 14 15 16 17 18 20 21 22 23 23 23 23 24 24 24 25 25 26 27 27 28 29 31 32 33 34
3 3 2 4 3 4 6 6 7 7 7 4 6 5 5 5 2 1 2 4 3 7 7 4 4 4 5 9 11 13 18 21 25 29 31 33 35 36 36 35 33 31 29 27 25 22 19 15 10 7 7 7 8 9 9 9 9 10 11 12 13 15 16 18 20 22 23 24 24 25 25 25 25 25 25 26 26 27 28 29 30 31 33 35 35 36
3 4 2 2 3 2 7 7 6 5 2 5 6 2 3 4 3 3 4 5 5 4 2 2 2 3 7 11 11 14 20 26 32 36 37 36 37 37 36 34 32 30 29 27 25 23 20 16 11 9 8 8 9 9 9 10 10 11 12 12 13 15 17 19 21 23 24 25 25 25 25 25 25 25 26 26 27 28 29 30 32 33 35 37 37 38
4 5 3 2 4 1 4 6 6 1 6 6 4 3 2 1 3 4 6 7 8 6 4 2 3 6 12 16 17 22 28 31 32 33 34 36 36 36 35 33 32 30 29 28 26 24 21 18 13 10 9 9 10 10 10 11 11 11 11 12 14 16 18 20 22 24 25 25 25 25 25 25 25 26 26 27 27 28 30 31 33 35 36 37 37 37
3 4 3 3 3 2 2 3 1 6 7 4 4 4 2 2 2 1 6 9 10 9 8 7 5 8 12 13 14 17 20 20 20 24 30 33 33 32 32 32 31 30 29 28 26 25 22 18 14 11 10 10 11 12 12 12 11 11 12 13 14 16 18 20 22 24 25 25 25 25 25 25 26 26 27 28 29 30 31 33 34 36 37 37 36 36
2 1 2 2 2 3 4 3 3 4 4 4 3 3 3 2 3 3 2 7 8 11 13 9 5 7 10 10 10 13 13 11 10 16 26 30 30 30 28 27 27 27 27 26 25 24 21 18 15 12 11 12 13 13 13 12 11 12 13 14 15 17 18 20 22 24 25 26 26 26 25 26 26 27 28 29 30 31 33 34 36 36 36 37 36 36
3 1 1 2 1 2 4 1 2 3 3 5 5 7 7 7 8 7 2 5 6 13 20 14 7 10 12 11 13 15 13 7 3 12 25 29 28 28 26 25 25 25 26 26 25 24 22 19 15 13 13 14 14 14 14 13 13 13 14 15 16 17 19 21 23 25 26 26 26 26 26 26 26 27 28 30 31 33 34 35 36 36 35 35 35 35
4 3 3 4 1 2 4 2 2 2 5 6 6 7 10 14 12 8 4 5 6 10 20 17 12 15 18 18 21 18 11 4 5 14 26 30 29 28 27 27 26 25 26 27 26 25 23 19 16 14 15 15 15 14 14 14 14 15 16 16 16 18 20 21 24 26 26 27 26 26 26 26 27 28 29 31 32 34 35 35 35 34 33 33 33 34
5 4 4 3 1 1 3 2 3 4 5 5 4 8 12 15 11 7 2 7 6 11 22 23 20 22 24 26 25 16 8 9 9 11 19 26 29 30 29 27 27 27 28 28 27 25 22 19 17 16 16 15 14 15 16 16 16 17 17 17 17 19 20 22 24 26 26 26 26 26 26 26 28 29 30 31 33 34 34 33 32 32 32 32 32 33
3 3 2 3 2 2 3 2 4 4 5 3 6 13 16 11 6 3 3 7 8 17 25 27 27 29 30 32 28 20 19 22 15 6 8 17 25 29 28 27 27 26 26 28 27 25 22 20 19 17 16 15 15 17 18 17 18 18 18 18 19 19 20 23 25 26 26 27 26 26 27 27 28 29 30 31 33 33 31 30 30 30 31 31 32 32
0 1 1 3 3 2 2 1 3 6 5 7 12 15 14 8 2 5 5 4 11 20 24 26 28 30 33 36 34 28 28 28 20 12 10 13 18 22 24 26 26 26 27 27 26 24 22 20 19 18 17 16 17 18 19 19 19 19 19 20 20 20 21 24 26 26 27 27 27 27 27 28 28 30 31 31 32 31 30 29 29 30 30 31 32 32
3 2 2 2 3 3 2 1 1 6 4 17 20 9 6 6 3 6 8 7 10 18 23 25 28 29 31 34 34 30 27 25 23 21 16 14 14 16 19 22 25 26 28 27 26 24 22 21 20 19 18 18 19 20 20 20 20 20 21 21 21 21 23 25 26 26 27 27 27 27 28 28 29 30 31 31 30 30 30 29 29 29 29 30 31 32
3 4 3 3 3 4 2 3 5 4 10 29 25 7 12 19 8 3 11 12 12 17 23 24 26 28 30 30 29 29 28 25 24 23 20 18 17 17 18 21 23 25 27 27 25 23 22 21 21 19 19 19 20 20 20 20 21 22 23 23 22 23 24 25 26 27 27 27 27 28 28 29 30 30 30 29 29 29 29 29 29 29 29 29 30 31
6 5 4 3 4 4 5 8 7 1 12 34 31 11 12 23 18 8 10 13 14 18 22 23 23 25 28 27 26 28 29 27 26 24 23 21 20 19 20 22 23 25 25 25 24 22 22 22 21 20 20 20 21 21 21 21 23 24 24 24 23 24 25 26 27 28 28 28 28 28 29 29 29 29 28 28 28 29 29 29 29 29 29 29 29 30
6 4 4 2 4 5 9 16 16 10 12 30 36 23 13 15 19 17 14 13 14 17 19 20 20 21 24 26 27 28 28 27 27 26 25 23 22 21 21 22 24 24 25 24 24 23 22 22 21 21 21 21 22 22 22 23 24 25 25 25 24 25 26 27 28 28 28 28 28 29 29 29 28 28 28 28 28 29 28 28 29 29 29 28 28 29
5 8 6 2 2 3 6 9 10 11 16 24 32 34 28 21 20 21 21 19 18 18 18 19 19 20 22 25 27 28 27 26 28 28 27 26 24 23 23 24 25 26 25 25 24 23 22 23 23 22 22 22 22 22 22 23 25 26 26 26 25 26 27 28 28 28 28 28 29 29 29 29 29 29 29 29 28 28 28 27 27 28 28 28 28 29
3 8 6 4 5 5 7 10 9 10 14 19 25 32 36 33 29 27 26 24 22 21 21 21 21 22 24 25 26 26 26 27 28 28 28 28 27 26 26 26 26 26 26 25 24 23 23 23 23 23 22 22 22 22 23 24 26 26 27 27 27 27 28 28 28 28 29 29 29 29 28 28 29 29 29 29 28 28 27 26 26 26 27 26 27 28
6 7 5 4 5 5 11 17 17 13 15 22 28 33 36 38 37 35 33 30 27 26 25 24 24 25 26 26 26 26 27 28 28 28 29 29 28 28 28 28 27 27 26 25 24 24 24 24 24 23 23 22 21 22 23 25 26 27 27 27 27 28 28 29 28 29 29 29 28 28 28 29 29 29 29 29 29 28 27 26 26 27 27 26 25 26
6 4 4 3 2 5 9 14 13 8 10 20 27 29 31 33 36 39 39 37 35 34 31 30 29 29 28 28 27 27 28 29 28 29 30 29 28 28 27 27 27 27 26 25 25 25 25 25 24 24 24 23 22 22 24 25 26 27 27 27 27 28 29 29 29 29 29 28 28 28 28 29 29 28 29 29 29 29 27 26 24 25 26 27 26 25
19 13 10 9 8 11 16 20 18 14 15 18 19 20 20 22 28 35 38 38 39 39 37 35 34 33 32 32 30 30 30 29 28 29 31 30 29 28 27 27 27 27 26 26 26 26 26 26 25 25 24 22 22 22 24 25 26 27 27 27 28 29 29 29 29 29 28 27 28 28 28 29 29 28 28 28 28 28 29 28 26 24 23 24 26 26
Wind_Direction
179 188 223 213 206 204 206 209 214 241 321 152 163 149 145 151 152 147 136 172 156 109 82 84 73 52 41 33 16 18 57 75 74 79 77 77 79 75 75 76 77 77 77 80 82 83 85 86 87 87 87 87 87 86 84 85 85 84 87 99 104 97 110 140 142 144 149 153 154 155 148 112 80 78 66 55 44 30 30 25 18 8 2 355 346 342
167 200 226 219 212 207 212 211 222 277 301 12 151 148 152 154 162 177 145 163 125 101 119 84 71 53 42 38 20 23 46 57 58 71 74 75 78 76 75 75 77 77 78 83 83 83 86 86 87 88 88 87 84 82 79 79 79 78 79 80 80 80 86 99 101 106 107 103 97 83 81 71 56 50 26 14 6 4 4 357 354 359 0 355 350 347
173 225 232 212 184 181 197 193 195 242 257 271 200 155 164 156 138 50 99 115 97 95 144 86 78 59 46 44 28 30 46 57 57 66 72 72 73 71 71 72 78 79 79 81 80 81 83 83 85 86 86 84 83 82 80 80 80 79 77 75 74 74 75 76 78 81 80 78 76 72 76 76 69 58 48 40 26 9 353 346 349 351 347 343 340 339
189 233 220 178 166 181 183 183 185 216 237 236 218 159 171 166 152 115 96 89 68 99 129 96 84 70 50 43 34 34 44 59 60 64 68 68 69 68 71 74 76 79 79 78 78 79 82 83 84 83 83 83 82 81 80 78 77 76 75 74 75 74 73 73 74 73 73 75 75 74 76 78 81 74 67 65 41 7 350 348 350 348 346 343 338 336
222 271 185 170 182 191 178 182 186 198 218 218 216 180 174 174 156 121 112 96 73 99 129 99 82 62 48 42 36 29 35 48 50 57 63 62 68 71 72 73 74 77 78 76 76 77 79 80 80 80 80 80 80 77 74 73 73 73 73 73 74 75 74 73 73 74 78 85 90 94 99 97 104 112 163 218 359 5 9 1 354 353 352 349 344 340
246 266 217 179 185 184 176 189 193 187 195 210 218 205 189 173 139 119 123 115 97 144 219 93 84 71 54 54 50 24 28 37 34 45 57 56 61 64 62 63 67 74 77 77 77 77 78 79 79 79 78 78 77 74 72 71 72 72 72 72 72 73 73 71 69 69 71 76 78 81 78 57 48 38 27 20 15 14 13 8 4 359 354 351 346 341
229 190 192 208 188 179 179 190 191 182 182 207 208 201 191 156 139 136 137 125 116 155 262 355 109 123 90 64 67 59 46 40 30 34 46 53 54 55 56 57 61 69 76 78 77 78 79 78 78 77 75 75 74 72 72 72 70 70 69 68 68 68 67 65 62 59 58 57 54 52 49 44 39 36 33 27 19 15 11 7 3 358 353 349 345 341
173 158 187 214 185 175 186 189 186 177 171 228 202 173 169 156 155 155 142 123 123 111 46 28 98 113 95 101 111 96 70 56 39 25 29 47 55 54 55 57 59 64 73 77 76 76 77 76 76 74 73 73 72 72 71 69 67 65 64 62 61 61 59 56 52 49 48 47 45 43 41 37 34 31 26 19 12 7 2 356 352 350 348 345 342 340
144 167 188 192 178 182 190 178 168 167 178 254 189 144 156 168 165 162 137 115 123 103 76 19 84 97 97 145 147 113 90 81 68 40 18 33 49 54 56 59 61 65 73 76 76 75 75 75 74 73 73 72 71 69 67 66 65 62 60 58 57 55 53 49 45 42 40 38 36 34 32 29 26 22 16 9 2 355 351 347 344 342 340 338 337 335
237 192 186 177 177 184 175 161 160 168 200 229 109 91 58 72 151 151 130 118 109 92 126 233 342 103 118 163 157 125 125 131 120 100 31 31 49 59 61 62 62 68 76 77 76 76 76 76 76 75 73 71 69 67 65 64 63 60 57 54 53 50 47 44 40 36 33 31 28 25 23 20 17 13 8 2 356 351 348 345 342 341 339 338 336 333
277 211 184 178 181 168 140 111 156 170 166 112 101 86 62 49 110 116 95 112 105 73 105 308 343 103 121 182 172 156 152 152 146 143 144 103 79 79 76 72 69 73 77 77 77 77 76 77 76 75 73 70 68 65 63 62 59 58 54 50 50 48 44 41 37 32 29 26 23 21 18 14 10 7 2 357 353 350 347 344 342 341 339 337 335 333
353 50 191 204 178 142 120 67 14 160 143 108 112 120 105 58 81 80 3 47 103 97 91 336 0 87 107 195 181 133 129 145 151 152 156 155 125 103 94 89 86 84 83 81 79 77 76 76 74 73 71 68 66 63 60 58 55 54 51 47 46 45 42 38 34 30 27 24 21 19 15 11 9 4 359 356 353 348 345 344 341 338 336 334 333 331
21 177 264 268 108 95 119 103 25 122 139 101 129 141 121 63 82 91 29 41 85 79 72 345 353 67 65 51 139 131 131 142 145 147 154 151 138 122 109 102 99 95 90 86 81 77 75 73 72 71 68 65 62 59 56 54 51 49 47 43 41 41 39 35 32 28 25 22 20 17 13 10 8 3 0 357 354 350 347 344 342 338 336 334 332 331
100 132 2 20 37 21 123 150 122 150 162 144 145 143 125 121 109 107 119 92 70 72 57 329 354 76 50 57 130 134 130 133 134 141 151 149 143 134 121 112 104 98 94 88 83 79 74 71 69 67 64 62 59 56 53 50 47 45 43 40 38 37 35 31 29 27 24 21 18 15 12 9 6 2 1 357 354 352 348 346 344 341 338 336 334 333
110 122 23 36 150 356 80 145 137 119 132 151 151 106 114 163 125 120 148 122 107 113 84 337 5 69 207 104 120 126 124 129 136 145 150 149 148 139 129 122 113 107 101 93 86 80 74 69 66 64 61 58 56 54 51 47 43 40 38 36 33 32 30 27 25 23 21 20 16 13 10 8 5 2 359 357 354 351 349 347 345 343 340 338 337 335
93 95 334 301 217 47 73 129 118 104 114 212 99 78 105 202 121 101 116 103 107 114 69 42 51 29 56 87 108 121 124 133 143 152 156 158 160 153 145 141 134 126 115 102 93 84 78 71 65 63 60 55 52 50 47 44 40 37 34 31 29 28 25 22 20 19 18 17 14 11 9 6 4 0 357 355 353 349 348 346 344 343 342 340 339 337
98 54 332 327 50 42 40 95 81 106 150 173 82 107 273 151 113 106 80 45 68 87 65 72 102 93 89 117 141 139 136 146 156 164 169 168 167 167 162 158 148 134 126 115 104 94 86 79 68 62 59 54 50 47 43 41 36 33 30 27 25 24 22 19 17 16 15 13 11 9 7 5 2 360 357 355 352 349 348 346 343 342 341 340 338 337
112 88 3 35 80 33 12 62 50 37 113 121 134 201 257 58 83 95 94 42 37 71 86 97 166 181 196 174 156 162 165 167 171 174 173 172 173 174 169 164 153 138 131 126 117 107 95 88 75 63 59 53 49 45 41 37 33 29 26 23 22 20 19 18 16 14 12 10 9 8 6 4 1 359 356 354 351 349 346 344 343 343 342 340 338 337
48 94 12 21 89 9 357 56 49 340 346 148 150 156 120 94 89 67 100 131 103 98 150 204 192 212 215 179 166 179 181 176 178 179 175 178 178 174 170 164 156 146 141 138 132 123 110 100 87 69 59 52 49 44 39 35 30 26 24 21 20 19 17 15 13 11 9 7 7 6 4 3 1 359 357 355 352 350 348 347 345 345 344 343 341 340
348 91 56 349 53 56 4 48 115 309 320 355 88 56 354 123 139 126 126 146 131 129 156 136 173 240 226 186 182 185 181 175 177 180 180 181 179 174 170 166 161 157 152 150 147 139 129 121 108 82 61 51 47 42 37 33 28 25 22 19 18 16 13 11 9 8 6 5 4 3 2 1 360 359 358 356 355 353 353 351 350 349 348 347 345 343
359 58 100 336 8 53 23 16 170 216 296 355 53 21 11 60 102 107 83 96 118 131 151 133 186 251 246 168 187 184 179 177 178 178 179 179 177 173 171 168 166 164 159 158 158 153 148 140 123 93 63 48 42 38 34 30 26 22 19 16 14 11 8 7 7 7 5 4 4 3 3 2 1 1 360 359 358 357 357 356 354 353 353 352 350 348
26 65 97 67 29 66 221 245 203 207 219 176 115 102 134 123 119 101 73 22 108 124 159 150 191 258 263 345 210 181 174 180 179 176 174 174 173 172 173 173 171 170 167 164 165 165 161 151 136 105 64 45 37 33 28 25 22 18 15 13 10 8 8 8 7 7 6 5 4 4 4 2 2 2 1 1 1 0 360 359 357 356 354 354 353 352
34 88 83 77 66 172 234 262 230 204 211 170 104 115 136 117 103 116 152 192 110 83 137 130 131 266 280 324 251 181 174 178 177 173 169 169 172 173 175 176 176 177 176 172 170 172 171 160 142 110 58 40 33 28 23 20 17 13 13 11 9 10 10 9 7 5 4 3 2 2 1 359 359 359 359 359 359 359 358 358 357 355 354 354 353 352
34 80 81 66 316 311 307 321 349 56 83 50 21 47 73 37 91 134 171 159 109 109 140 95 50 259 289 337 215 165 165 169 171 172 168 166 172 176 177 178 180 181 183 180 176 175 178 175 163 128 55 37 30 23 20 18 14 12 12 9 8 9 8 5 3 1 0 360 359 358 357 356 355 355 355 355 355 355 354 353 352 351 350 350 350 349
28 69 89 91 39 356 350 342 343 353 34 56 349 338 6 30 55 89 120 78 84 171 146 118 203 253 313 5 126 148 152 160 167 172 171 169 172 177 179 180 182 184 186 185 182 180 184 189 190 185 54 27 20 18 16 13 10 8 7 5 3 4 2 1 359 357 356 356 355 354 353 352 351 351 352 352 351 350 349 348 347 347 346 345 345 345
77 75 92 124 133 144 163 200 239 295 336 24 354 346 3 28 32 54 92 72 92 175 109 125 194 254 320 323 168 155 154 161 168 171 174 175 177 179 181 182 185 187 188 187 185 184 191 197 203 212 17 10 9 12 8 5 4 3 2 360 359 359 357 356 354 352 351 351 350 350 349 348 348 349 349 348 347 346 345 344 343 342 342 341 341 341
111 66 43 111 120 150 178 213 239 250 66 46 0 358 357 7 22 71 93 105 166 144 88 198 165 158 211 213 190 178 172 169 173 175 177 180 180 182 184 185 187 190 190 190 190 191 198 202 208 227 322 353 357 1 360 358 359 0 359 355 354 353 352 350 349 348 348 347 346 345 344 344 344 344 344 342 342 341 340 339 339 338 338 337 337 336
117 48 14 68 69 87 169 291 295 31 93 128 79 11 354 358 34 71 95 165 145 117 261 241 153 152 201 201 189 189 184 178 181 183 183 183 183 183 185 186 188 190 191 194 198 200 202 204 210 231 289 336 347 352 354 354 355 354 352 350 349 348 346 346 345 344 344 344 343 341 340 339 339 338 337 336 335 335 335 335 335 334 334 334 334 334
118 55 4 69 52 28 25 10 358 49 83 101 106 74 8 19 64 96 133 181 134 135 218 199 167 183 207 194 193 194 188 187 187 187 186 185 183 183 184 186 188 190 193 197 201 205 209 210 217 244 299 326 338 344 345 346 346 345 343 343 344 343 342 342 341 341 341 339 337 335 333 332 331 330 330 330 330 331 331 331 332 332 332 332 332 332
97 56 18 68 53 20 14 10 14 36 45 26 56 46 10 69 96 108 134 151 122 138 191 164 178 220 219 190 199 198 192 190 186 184 185 185 184 184 185 187 190 194 197 200 204 210 215 218 226 256 297 314 324 331 333 334 335 336 337 339 340 339 338 338 337 337 336 333 331 329 328 327 327 327 328 329 329 330 330 330 330 330 330 331 331 331
48 67 0 57 57 3 0 12 10 18 41 9 322 319 351 111 111 98 130 143 118 109 106 132 176 247 246 185 190 188 184 182 180 184 188 188 187 186 188 192 195 197 201 204 208 213 218 224 236 257 284 301 310 316 321 324 327 331 335 336 336 336 334 334 335 334 333 332 331 330 329 329 329 329 329 329 329 328 329 329 329 329 329 330 330 329
45 68 354 53 66 331 344 13 353 353 33 8 298 278 235 164 169 195 184 191 163 141 122 115 177 251 223 158 163 172 177 179 182 186 188 189 190 190 192 195 198 201 204 206 210 215 220 229 241 257 275 291 300 306 311 315 321 327 332 333 332 332 332 333 335 335 335 335 333 331 330 329 329 329 328 328 327 327 328 328 328 328 328 328 329 328
72 94 49 66 76 303 325 1 350 5 27 333 280 248 217 207 214 242 252 258 203 151 142 169 218 227 164 147 151 166 178 185 190 192 191 191 192 195 199 201 202 205 208 211 215 219 224 232 243 257 271 283 292 296 301 308 317 324 327 328 328 329 334 337 337 335 334 333 330 328 327 327 327 327 326 326 326 326 327 327 327 328 328 328 328 328
73 91 110 117 107 295 311 344 13 32 25 256 257 253 220 202 186 212 243 246 222 186 157 197 204 140 147 163 169 176 187 196 200 200 198 197 196 198 202 206 208 210 212 215 219 223 228 234 241 254 268 277 283 288 296 305 313 317 319 322 327 331 336 336 334 332 330 329 327 325 324 324 323 324 324 324 325 325 326 327 327 328 328 327 328 328
92 93 115 117 108 132 323 14 41 263 241 247 273 303 307 132 160 228 270 260 232 226 234 219 180 170 178 185 186 187 193 200 203 203 202 203 204 203 205 208 211 214 215 218 222 226 229 234 241 255 267 273 278 284 293 299 302 307 313 320 327 332 334 332 330 328 326 325 324 322 322 322 321 322 323 323 324 324 325 325 326 326 326 326 327 327
124 131 125 112 122 139 80 70 159 242 256 284 311 297 324 51 94 293 297 268 230 214 218 216 204 192 188 189 192 191 193 196 200 205 206 207 210 211 211 213 215 217 220 224 227 231 232 235 244 259 268 272 278 283 286 290 292 300 309 316 324 328 328 327 325 324 324 323 322 321 320 320 320 321 322 322 323 323 323 324 325 325 325 325 325 326
60 125 85 105 181 158 131 176 258 303 309 304 289 230 187 163 171 154 292 273 231 201 201 199 188 183 175 172 177 176 174 174 193 214 212 210 213 217 220 223 224 224 227 230 233 235 235 237 246 261 270 272 276 277 278 282 287 295 303 310 316 321 322 323 323 322 323 322 320 319 318 318 319 320 321 321 322 323 323 324 325 325 325 325 325 325
49 65 96 114 205 117 111 173 316 359 289 248 231 213 188 170 165 146 122 293 258 207 199 190 164 163 161 152 153 153 153 155 209 226 214 209 214 218 220 225 228 229 232 232 231 231 231 237 248 262 269 269 270 270 273 280 285 290 297 302 307 313 317 320 321 321 321 320 318 316 316 316 318 318 320 321 321 322 323 324 324 324 324 324 324 324
37 29 78 89 63 86 106 157 197 197 240 238 213 196 178 168 159 122 66 298 274 205 192 182 164 165 163 158 156 149 145 170 240 235 219 212 213 216 217 221 224 228 231 232 232 232 232 239 251 260 263 264 267 268 272 279 282 285 291 296 301 309 314 317 318 319 319 317 315 314 314 315 316 317 318 320 320 321 322 322 322 323 322 323 323 323
16 11 47 80 185 174 128 173 229 233 253 255 204 175 167 165 151 99 29 269 239 182 182 178 170 172 170 164 160 157 171 199 225 247 228 216 216 218 219 222 224 226 228 229 230 231 233 242 253 260 264 265 267 269 272 276 278 281 287 293 298 306 312 314 315 317 316 314 312 312 312 313 314 315 316 318 318 318 319 319 319 320 321 321 322 322
3 4 56 120 167 181 165 222 273 262 249 233 170 163 159 149 122 104 226 233 185 170 180 182 178 178 176 171 169 182 206 210 215 232 204 204 213 217 221 227 230 231 231 230 230 230 234 246 256 261 266 267 266 268 271 273 275 280 285 290 296 304 308 309 312 314 314 312 311 311 311 311 313 314 315 315 315 315 316 317 317 318 320 320 320 321
252 23 91 139 149 159 163 198 287 283 252 168 152 158 156 141 157 215 211 181 164 171 178 185 187 185 184 184 188 201 213 214 215 213 194 194 205 210 218 225 226 227 227 227 228 231 237 250 257 260 265 266 264 266 268 270 274 279 284 288 295 301 303 305 309 311 311 310 309 309 309 310 311 312 313 313 313 314 315 317 317 318 319 320 320 321
181 159 218 218 168 137 75 80 248 289 217 147 139 144 182 182 209 203 174 148 164 178 179 186 194 194 192 196 203 210 215 216 217 220 219 213 208 210 218 222 222 223 224 224 227 233 242 252 256 259 263 263 262 264 266 269 274 279 283 288 293 297 299 303 307 308 308 308 307 307 308 309 310 311 311 312 312 314 315 316 317 318 319 320 321 321
201 178 203 239 185 141 133 186 208 263 182 162 156 163 209 202 205 164 166 172 179 183 184 189 198 202 201 204 209 213 217 220 222 223 223 220 217 218 219 220 221 223 224 226 231 238 246 252 254 257 260 260 262 265 268 271 276 279 282 287 291 293 297 302 305 306 307 306 306 307 307 308 310 310 310 311 312 313 314 315 316 318 319 321 321 321
220 190 167 207 214 182 203 224 230 283 174 180 186 208 217 210 215 206 184 191 193 193 194 195 200 205 208 211 213 215 219 224 225 225 224 223 224 223 222 221 222 223 225 229 236 243 247 250 252 255 258 260 264 267 270 272 276 278 281 285 288 291 297 301 303 304 305 304 305 306 307 308 309 309 310 311 312 312 314 315 316 317 320 321 321 321
228 186 140 174 253 273 268 252 245 248 211 198 204 217 231 226 223 218 213 213 209 208 208 207 209 211 210 213 216 218 221 226 228 228 227 226 228 228 225 224 223 225 229 233 239 244 246 248 251 254 258 263 266 269 272 274 275 277 280 283 287 292 296 300 302 303 304 303 304 306 307 308 309 309 310 311 312 313 314 315 316 317 319 321 321 321
232 190 181 204 266 283 274 254 237 236 231 219 217 223 230 235 231 227 228 229 227 225 222 220 221 220 216 217 219 222 226 228 228 229 228 227 229 229 227 226 226 228 233 238 242 245 246 247 251 254 259 266 268 270 273 273 274 277 280 283 288 292 296 299 301 302 302 303 304 306 307 308 308 308 310 311 312 313 313 314 315 316 318 321 321 320
196 176 186 214 208 212 257 267 260 255 247 236 229 229 232 235 237 237 238 238 236 235 232 228 226 223 221 222 223 227 231 231 230 231 230 229 231 231 230 230 231 233 238 242 243 245 246 248 252 257 262 266 269 270 271 271 274 276 279 283 288 292 295 298 299 300 301 302 304 306 306 307 307 308 310 311 312 312 313 313 315 315 317 320 321 320
145 161 181 196 207 246 279 270 257 262 270 255 242 237 237 238 239 241 242 242 238 235 233 230 228 227 227 228 228 230 232 233 233 233 233 232 234 234 234 235 236 238 241 242 243 245 247 251 254 258 263 265 266 267 268 270 273 276 278 282 287 291 295 297 297 298 301 302 304 305 305 306 307 308 310 311 311 312 312 313 315 315 316 319 320 320
163 195 187 167 220 246 255 244 224 219 259 254 247 246 247 245 242 241 241 241 239 238 237 233 231 230 230 231 232 232 232 234 235 234 234 236 237 238 238 238 239 241 242 242 244 246 248 252 255 257 260 262 263 265 268 271 273 275 277 282 287 291 294 295 295 298 300 302 304 305 305 305 307 308 309 310 311 311 312 312 312 313 315 317 318 319
206 214 186 184 220 235 238 235 221 217 241 256 260 263 261 253 246 243 243 243 242 242 241 238 236 234 232 232 232 232 234 237 236 234 234 237 239 240 241 240 240 241 242 242 244 246 248 251 253 254 258 262 264 267 269 271 272 274 277 282 287 291 292 293 295 297 300 302 303 304 304 305 306 308 309 310 311 311 311 311 311 311 311 313 313 314
Height
1507 1509 1509 1505 1504 1504 1503 1503 1502 1501 1501 1501 1502 1504 1507 1508 1510 1510 1510 1511 1509 1523 1542 1544 1548 1554 1556 1559 1557 1554 1549 1546 1553 1554 1554 1556 1555 1556 1556 1556 1556 1555 1558 1560 1559 1558 1557 1556 1555 1554 1554 1554 1553 1553 1554 1553 1553 1553 1553 1553 1553 1554 1554 1554 1554 1554 1554 1554 1554 1555 1554 1554 1554 1554 1554 1553 1553 1553 1553 1553 1552 1551 1550 1550 1549 1549
1507 1508 1505 1500 1500 1501 1502 1503 1504 1504 1503 1504 1504 1505 1507 1507 1509 1509 1510 1514 1511 1525 1547 1543 1545 1560 1563 1564 1562 1557 1553 1553 1558 1558 1557 1559 1558 1559 1559 1559 1559 1559 1561 1561 1560 1560 1559 1558 1557 1556 1555 1554 1554 1554 1555 1555 1555 1555 1555 1554 1554 1555 1555 1554 1555 1555 1555 1555 1555 1555 1555 1555 1555 1554 1554 1554 1554 1553 1553 1553 1552 1551 1550 1549 1549 1548
1507 1505 1500 1499 1501 1502 1503 1504 1506 1506 1505 1506 1506 1505 1507 1507 1509 1510 1512 1518 1515 1526 1545 1541 1548 1566 1567 1566 1566 1562 1560 1561 1564 1563 1562 1562 1561 1562 1562 1562 1562 1561 1562 1562 1562 1562 1560 1560 1559 1557 1556 1556 1556 1556 1556 1557 1557 1556 1556 1556 1556 1556 1556 1555 1556 1556 1556 1556 1556 1556 1556 1556 1555 1555 1555 1554 1554 1554 1554 1553 1553 1552 1550 1549 1549 1548
1505 1500 1497 1500 1502 1501 1502 1503 1504 1506 1506 1506 1507 1506 1506 1506 1505 1509 1517 1523 1520 1526 1539 1538 1549 1565 1568 1569 1569 1568 1568 1567 1568 1568 1566 1566 1564 1565 1565 1565 1564 1563 1563 1563 1563 1563 1562 1562 1561 1559 1559 1558 1559 1558 1558 1559 1558 1558 1558 1558 1558 1558 1558 1557 1557 1557 1557 1557 1557 1557 1557 1557 1556 1556 1556 1555 1555 1555 1554 1554 1553 1552 1551 1549 1549 1548
1499 1495 1496 1498 1499 1500 1501 1502 1503 1506 1508 1506 1506 1504 1504 1504 1502 1508 1519 1524 1526 1531 1531 1528 1545 1565 1571 1573 1575 1574 1573 1571 1572 1572 1570 1570 1569 1569 1568 1567 1566 1565 1565 1565 1565 1565 1565 1564 1563 1562 1562 1561 1560 1560 1561 1561 1561 1561 1561 1561 1561 1560 1559 1559 1559 1559 1560 1559 1559 1558 1558 1557 1557 1557 1556 1555 1555 1554 1554 1553 1553 1552 1551 1550 1549 1548
1497 1494 1496 1497 1498 1499 1500 1502 1502 1503 1506 1505 1504 1502 1501 1502 1504 1511 1517 1520 1530 1537 1529 1523 1539 1566 1576 1577 1580 1580 1577 1575 1575 1575 1575 1574 1574 1572 1571 1570 1569 1569 1568 1568 1568 1568 1567 1567 1566 1565 1564 1563 1562 1563 1564 1564 1564 1564 1563 1563 1563 1562 1561 1561 1561 1561 1561 1561 1559 1559 1558 1557 1557 1557 1556 1556 1555 1555 1554 1554 1554 1553 1552 1550 1549 1548
1495 1493 1495 1497 1498 1498 1499 1501 1499 1500 1505 1505 1501 1498 1501 1503 1506 1511 1509 1513 1525 1531 1528 1524 1533 1561 1578 1579 1582 1583 1581 1580 1578 1578 1579 1578 1577 1576 1574 1573 1572 1572 1572 1571 1571 1570 1569 1569 1568 1567 1566 1566 1565 1566 1567 1566 1566 1566 1565 1565 1564 1563 1562 1562 1562 1562 1562 1561 1560 1559 1559 1558 1558 1558 1557 1557 1557 1556 1556 1556 1555 1554 1552 1551 1550 1549
1491 1492 1495 1496 1497 1498 1498 1498 1496 1498 1503 1502 1496 1495 1501 1504 1506 1507 1505 1511 1521 1524 1531 1533 1533 1554 1576 1581 1583 1583 1583 1584 1582 1582 1583 1581 1580 1578 1577 1577 1575 1575 1575 1574 1573 1572 1571 1571 1570 1569 1569 1568 1568 1569 1569 1568 1568 1567 1567 1566 1565 1564 1563 1563 1563 1562 1562 1561 1560 1560 1559 1559 1559 1559 1559 1558 1558 1557 1557 1556 1555 1554 1553 1551 1550 1549
1489 1491 1493 1494 1496 1496 1494 1493 1493 1496 1499 1498 1495 1496 1500 1501 1502 1504 1507 1514 1517 1522 1537 1541 1536 1549 1570 1579 1581 1581 1583 1586 1586 1586 1585 1583 1582 1581 1580 1580 1579 1578 1577 1576 1575 1574 1573 1572 1571 1571 1571 1572 1571 1571 1570 1570 1569 1569 1568 1567 1566 1565 1564 1564 1563 1563 1562 1562 1561 1561 1560 1560 1559 1559 1559 1559 1558 1557 1556 1556 1554 1553 1552 1551 1550 1548
1488 1488 1488 1490 1492 1492 1490 1491 1492 1494 1497 1496 1496 1500 1502 1502 1503 1505 1510 1513 1515 1523 1538 1541 1536 1546 1565 1575 1578 1579 1582 1584 1586 1587 1587 1586 1584 1583 1583 1582 1581 1580 1579 1578 1577 1576 1576 1574 1574 1574 1574 1574 1573 1573 1572 1572 1571 1570 1569 1568 1567 1566 1565 1564 1564 1563 1563 1562 1561 1561 1560 1560 1559 1559 1559 1558 1558 1557 1555 1554 1553 1551 1550 1549 1548 1547
1488 1488 1488 1488 1488 1487 1488 1490 1491 1493 1495 1495 1497 1502 1506 1507 1506 1508 1510 1510 1516 1530 1540 1541 1537 1539 1554 1568 1572 1573 1574 1577 1582 1585 1587 1588 1586 1585 1584 1582 1582 1581 1580 1580 1580 1579 1578 1576 1576 1576 1575 1575 1574 1575 1574 1573 1572 1571 1570 1569 1567 1566 1566 1565 1564 1564 1563 1562 1562 1561 1560 1560 1559 1558 1558 1557 1556 1555 1554 1552 1551 1550 1548 1547 1546 1544
1488 1488 1488 1486 1485 1486 1486 1491 1494 1494 1494 1495 1498 1501 1505 1508 1506 1509 1514 1512 1520 1534 1541 1545 1541 1534 1544 1562 1569 1569 1570 1574 1578 1582 1585 1587 1586 1585 1583 1583 1582 1582 1582 1582 1581 1581 1579 1578 1577 1576 1576 1576 1575 1575 1575 1574 1573 1572 1570 1569 1568 1567 1566 1565 1564 1564 1563 1562 1561 1561 1560 1560 1559 1558 1557 1556 1555 1554 1552 1551 1550 1549 1547 1546 1545 1543
1489 1487 1486 1485 1485 1485 1486 1493 1499 1498 1496 1497 1498 1497 1500 1506 1507 1513 1520 1520 1526 1537 1544 1547 1541 1539 1552 1566 1569 1570 1572 1574 1577 1580 1584 1585 1585 1583 1582 1583 1582 1582 1582 1582 1582 1582 1581 1579 1578 1577 1576 1576 1576 1576 1576 1575 1574 1572 1571 1570 1569 1567 1566 1565 1565 1563 1563 1562 1561 1560 1560 1559 1559 1558 1557 1556 1555 1553 1552 1550 1549 1547 1546 1544 1543 1541
1488 1487 1486 1484 1485 1485 1486 1493 1499 1499 1498 1499 1498 1495 1497 1500 1504 1515 1523 1526 1533 1541 1547 1547 1540 1546 1562 1569 1570 1572 1573 1574 1577 1581 1583 1585 1585 1583 1582 1583 1583 1582 1582 1582 1582 1582 1581 1580 1578 1577 1576 1576 1577 1577 1576 1575 1574 1573 1572 1571 1569 1568 1567 1566 1565 1564 1563 1562 1561 1560 1560 1559 1558 1558 1557 1556 1554 1553 1552 1550 1549 1547 1545 1543 1541 1539
1483 1486 1488 1485 1486 1486 1486 1488 1492 1495 1498 1499 1498 1498 1497 1491 1493 1508 1519 1524 1532 1539 1544 1546 1546 1552 1561 1566 1570 1573 1574 1575 1577 1581 1583 1584 1585 1584 1583 1583 1583 1583 1582 1582 1582 1582 1581 1580 1579 1578 1577 1577 1577 1577 1576 1575 1574 1573 1572 1571 1569 1568 1567 1566 1565 1564 1563 1562 1561 1560 1560 1559 1558 1557 1556 1555 1554 1552 1551 1549 1548 1546 1544 1542 1540 1538
1482 1487 1488 1487 1487 1487 1486 1487 1488 1492 1497 1501 1500 1499 1498 1491 1492 1512 1523 1524 1530 1536 1544 1553 1558 1563 1567 1570 1573 1573 1574 1577 1578 1580 1583 1583 1584 1584 1584 1584 1584 1583 1583 1582 1582 1581 1581 1580 1579 1578 1578 1578 1578 1577 1576 1575 1574 1573 1572 1570 1569 1568 1567 1566 1565 1564 1563 1562 1562 1561 1560 1559 1558 1557 1556 1554 1553 1552 1550 1548 1546 1545 1543 1541 1539 1537
1484 1490 1489 1487 1488 1488 1488 1488 1488 1490 1494 1499 1500 1499 1497 1493 1496 1513 1527 1529 1528 1532 1547 1559 1564 1570 1570 1569 1573 1574 1574 1577 1578 1579 1581 1581 1583 1583 1583 1583 1583 1583 1582 1582 1581 1581 1581 1580 1579 1579 1578 1578 1577 1576 1575 1574 1573 1572 1571 1570 1569 1568 1567 1566 1565 1564 1563 1562 1561 1561 1560 1559 1558 1556 1555 1554 1552 1551 1549 1547 1546 1544 1542 1540 1537 1536
1482 1490 1491 1488 1489 1490 1489 1489 1490 1490 1492 1496 1497 1497 1497 1497 1499 1508 1523 1535 1534 1538 1555 1562 1562 1566 1563 1560 1568 1574 1573 1574 1575 1576 1578 1580 1580 1580 1581 1581 1582 1582 1582 1581 1581 1580 1580 1580 1579 1579 1578 1578 1577 1576 1574 1573 1572 1571 1570 1569 1568 1567 1566 1565 1565 1564 1563 1562 1561 1560 1559 1558 1557 1556 1554 1553 1552 1550 1548 1547 1545 1543 1541 1539 1537 1534
1480 1487 1493 1491 1491 1493 1491 1490 1493 1493 1492 1492 1493 1495 1495 1495 1499 1504 1515 1528 1533 1545 1558 1559 1558 1559 1553 1555 1564 1567 1567 1569 1571 1573 1574 1576 1576 1577 1579 1580 1581 1581 1581 1581 1580 1579 1579 1579 1579 1578 1578 1577 1576 1575 1574 1572 1571 1570 1570 1569 1568 1567 1566 1565 1565 1563 1562 1561 1560 1559 1558 1557 1556 1555 1553 1552 1550 1549 1547 1545 1543 1542 1540 1538 1536 1533
1481 1485 1494 1494 1492 1494 1494 1496 1500 1500 1495 1491 1492 1495 1493 1493 1498 1504 1510 1514 1521 1540 1553 1553 1557 1552 1542 1549 1557 1557 1559 1563 1565 1568 1569 1571 1573 1574 1576 1578 1579 1580 1580 1580 1579 1579 1579 1578 1578 1578 1577 1576 1575 1574 1573 1572 1571 1570 1569 1569 1568 1567 1566 1565 1564 1563 1562 1560 1559 1558 1557 1556 1554 1553 1551 1550 1548 1547 1545 1543 1541 1540 1538 1536 1534 1532
1481 1482 1493 1498 1495 1498 1502 1505 1508 1508 1502 1495 1491 1492 1494 1496 1499 1502 1510 1513 1517 1534 1547 1548 1548 1544 1539 1545 1550 1550 1554 1557 1559 1562 1565 1568 1571 1573 1574 1576 1577 1578 1578 1578 1578 1578 1578 1577 1577 1576 1575 1575 1574 1573 1572 1571 1570 1570 1569 1568 1567 1567 1566 1565 1563 1562 1561 1559 1558 1557 1556 1554 1553 1551 1550 1548 1547 1545 1543 1542 1540 1538 1536 1535 1533 1531
1484 1486 1495 1502 1503 1505 1508 1508 1508 1509 1507 1502 1498 1498 1500 1500 1497 1497 1508 1518 1518 1524 1534 1531 1525 1532 1543 1547 1545 1547 1550 1553 1556 1559 1562 1566 1569 1571 1573 1574 1575 1576 1576 1576 1576 1576 1576 1575 1575 1574 1574 1573 1573 1572 1571 1571 1570 1569 1569 1568 1567 1566 1565 1564 1562 1561 1559 1558 1556 1555 1553 1552 1551 1549 1548 1547 1545 1544 1542 1540 1539 1537 1535 1533 1531 1529
1489 1491 1499 1507 1510 1508 1507 1507 1506 1506 1506 1503 1501 1505 1507 1503 1497 1493 1498 1511 1518 1520 1526 1523 1515 1528 1545 1546 1543 1545 1547 1550 1555 1558 1561 1565 1567 1569 1571 1571 1573 1573 1574 1574 1574 1574 1574 1574 1573 1573 1573 1572 1572 1571 1571 1570 1570 1569 1568 1567 1566 1565 1563 1562 1561 1559 1558 1557 1555 1554 1552 1551 1550 1548 1546 1545 1543 1542 1541 1539 1537 1536 1534 1532 1531 1529
1490 1497 1504 1508 1510 1506 1504 1506 1506 1504 1505 1503 1503 1507 1509 1505 1504 1502 1500 1505 1512 1517 1521 1517 1514 1528 1545 1546 1543 1544 1546 1550 1554 1557 1560 1562 1565 1567 1567 1569 1570 1570 1571 1572 1572 1573 1572 1572 1572 1572 1572 1572 1571 1571 1570 1569 1569 1567 1566 1565 1564 1563 1562 1561 1560 1558 1557 1556 1554 1553 1552 1550 1549 1547 1546 1544 1542 1541 1539 1538 1536 1534 1533 1531 1529 1528
1493 1506 1506 1499 1503 1506 1504 1503 1502 1501 1505 1508 1509 1511 1510 1508 1506 1507 1507 1505 1508 1519 1521 1511 1512 1532 1545 1546 1546 1545 1547 1551 1553 1555 1558 1559 1561 1564 1564 1566 1567 1567 1569 1570 1570 1571 1571 1571 1571 1570 1570 1570 1570 1569 1568 1567 1567 1565 1564 1564 1563 1562 1561 1560 1559 1557 1556 1555 1553 1552 1551 1549 1548 1546 1545 1543 1542 1540 1539 1537 1535 1533 1532 1530 1528 1526
1500 1515 1509 1493 1492 1499 1501 1503 1504 1506 1510 1512 1513 1512 1510 1510 1506 1503 1504 1501 1504 1521 1524 1510 1515 1540 1550 1547 1548 1548 1548 1550 1553 1555 1556 1557 1557 1559 1561 1562 1564 1565 1566 1567 1568 1569 1569 1569 1569 1569 1569 1569 1568 1568 1567 1566 1565 1565 1563 1563 1562 1561 1560 1559 1558 1557 1555 1553 1552 1551 1549 1548 1546 1545 1543 1542 1540 1539 1538 1536 1534 1533 1531 1529 1527 1525
1505 1518 1518 1507 1501 1503 1509 1513 1515 1515 1514 1513 1514 1513 1511 1512 1510 1505 1503 1501 1507 1519 1519 1516 1526 1542 1549 1549 1547 1548 1548 1548 1551 1552 1553 1554 1555 1556 1558 1559 1561 1563 1564 1565 1566 1567 1567 1567 1567 1567 1567 1567 1567 1566 1566 1565 1564 1563 1563 1562 1561 1560 1559 1558 1557 1555 1554 1552 1551 1549 1548 1546 1544 1543 1542 1540 1539 1537 1536 1535 1533 1531 1530 1528 1526 1524
1504 1513 1520 1520 1519 1521 1522 1522 1520 1517 1515 1514 1515 1514 1513 1513 1510 1507 1506 1509 1515 1513 1510 1523 1535 1532 1535 1544 1543 1543 1545 1544 1546 1547 1547 1549 1551 1553 1556 1558 1560 1562 1562 1563 1564 1564 1565 1565 1565 1566 1565 1565 1565 1564 1564 1563 1562 1562 1561 1560 1560 1559 1558 1557 1555 1554 1552 1551 1549 1548 1546 1545 1543 1542 1540 1539 1538 1536 1534 1533 1531 1530 1528 1526 1524 1522
1507 1514 1521 1522 1523 1525 1525 1523 1520 1517 1517 1519 1518 1516 1515 1514 1509 1509 1514 1518 1519 1510 1506 1523 1533 1522 1524 1536 1536 1535 1537 1537 1538 1542 1543 1546 1549 1551 1555 1556 1558 1559 1559 1561 1562 1562 1563 1563 1563 1564 1563 1563 1563 1562 1562 1562 1561 1561 1560 1559 1558 1558 1556 1555 1554 1553 1551 1550 1548 1547 1546 1544 1543 1541 1540 1538 1537 1535 1533 1532 1530 1528 1526 1524 1522 1520
1510 1517 1524 1523 1522 1523 1525 1526 1524 1521 1519 1519 1519 1520 1519 1517 1514 1514 1518 1521 1521 1517 1515 1524 1530 1522 1521 1528 1529 1529 1533 1535 1538 1541 1543 1545 1548 1549 1552 1553 1554 1556 1557 1558 1559 1560 1561 1561 1561 1561 1561 1561 1561 1561 1561 1560 1560 1559 1558 1558 1557 1556 1555 1554 1553 1551 1550 1549 1548 1546 1544 1543 1542 1540 1538 1537 1535 1533 1531 1530 1528 1526 1524 1522 1520 1518
1509 1518 1528 1526 1521 1522 1527 1529 1527 1526 1523 1520 1520 1523 1521 1519 1519 1518 1520 1521 1520 1520 1525 1530 1529 1523 1520 1523 1526 1529 1534 1536 1538 1540 1541 1542 1545 1547 1549 1550 1551 1553 1554 1555 1557 1557 1558 1558 1559 1559 1559 1559 1559 1559 1559 1558 1558 1557 1557 1556 1555 1554 1553 1552 1551 1550 1548 1547 1545 1544 1542 1541 1539 1538 1536 1535 1533 1531 1529 1527 1525 1523 1521 1519 1517 1515
1514 1520 1529 1526 1517 1519 1531 1533 1528 1527 1525 1518 1516 1519 1520 1519 1518 1517 1518 1518 1514 1516 1527 1531 1523 1517 1518 1521 1525 1528 1531 1532 1534 1535 1538 1540 1542 1543 1544 1546 1548 1549 1551 1552 1553 1554 1555 1556 1556 1556 1557 1557 1557 1557 1557 1556 1556 1555 1555 1554 1553 1552 1551 1550 1549 1547 1546 1545 1543 1541 1540 1538 1537 1536 1534 1533 1531 1529 1527 1525 1523 1521 1518 1516 1514 1512
1526 1522 1526 1527 1517 1519 1535 1536 1529 1526 1516 1506 1510 1517 1519 1519 1518 1517 1517 1517 1515 1517 1521 1518 1511 1512 1518 1521 1523 1527 1529 1529 1530 1531 1533 1535 1538 1539 1540 1542 1544 1546 1547 1549 1550 1551 1552 1553 1554 1554 1554 1554 1555 1555 1555 1554 1554 1553 1553 1552 1551 1550 1549 1548 1547 1545 1544 1543 1541 1539 1538 1536 1535 1533 1532 1530 1528 1526 1524 1522 1520 1518 1515 1513 1511 1508
1529 1524 1529 1533 1521 1522 1536 1537 1530 1523 1508 1504 1517 1525 1522 1519 1517 1516 1514 1515 1516 1516 1515 1513 1512 1516 1519 1518 1520 1522 1523 1523 1524 1525 1527 1530 1532 1535 1537 1539 1541 1543 1545 1546 1547 1549 1550 1550 1551 1552 1552 1552 1553 1552 1552 1552 1552 1551 1551 1550 1549 1548 1547 1546 1545 1543 1542 1540 1539 1537 1536 1534 1533 1531 1529 1527 1525 1523 1521 1519 1517 1514 1512 1509 1507 1505
1525 1524 1531 1536 1528 1529 1539 1535 1521 1513 1509 1514 1524 1526 1522 1521 1521 1518 1515 1515 1516 1515 1514 1514 1515 1515 1516 1516 1516 1517 1518 1519 1521 1524 1526 1528 1529 1532 1534 1536 1539 1541 1542 1543 1544 1546 1547 1548 1549 1549 1550 1550 1550 1550 1550 1550 1550 1549 1548 1548 1547 1546 1545 1544 1543 1541 1540 1538 1537 1535 1533 1532 1530 1528 1526 1525 1522 1520 1519 1516 1514 1512 1509 1506 1504 1501
1525 1522 1526 1534 1535 1531 1534 1528 1513 1506 1515 1522 1524 1523 1522 1522 1522 1520 1513 1508 1509 1512 1512 1512 1513 1514 1516 1516 1517 1518 1519 1521 1524 1525 1526 1527 1529 1530 1532 1534 1536 1537 1539 1540 1541 1543 1544 1545 1546 1547 1547 1547 1548 1548 1548 1548 1548 1547 1546 1545 1545 1544 1543 1542 1541 1539 1538 1536 1534 1533 1531 1529 1527 1525 1523 1521 1519 1517 1515 1513 1511 1508 1506 1503 1501 1499
1530 1526 1522 1527 1532 1528 1526 1525 1518 1511 1512 1515 1515 1517 1519 1518 1518 1519 1513 1504 1502 1506 1508 1508 1512 1515 1516 1517 1519 1520 1522 1524 1526 1525 1525 1526 1528 1529 1530 1532 1534 1535 1537 1538 1540 1541 1542 1543 1544 1544 1544 1545 1545 1545 1546 1546 1545 1545 1544 1543 1542 1542 1541 1539 1538 1537 1535 1533 1532 1530 1528 1526 1524 1522 1520 1518 1516 1514 1512 1510 1507 1505 1502 1500 1497 1495
1533 1531 1524 1521 1530 1532 1524 1517 1514 1505 1497 1500 1508 1511 1512 1513 1514 1517 1516 1506 1498 1499 1502 1505 1509 1513 1515 1518 1520 1521 1523 1527 1526 1522 1521 1524 1526 1527 1529 1531 1532 1534 1535 1536 1538 1539 1540 1541 1541 1542 1542 1542 1543 1543 1543 1543 1542 1542 1541 1541 1540 1539 1538 1537 1535 1534 1532 1530 1529 1527 1525 1523 1521 1519 1517 1515 1513 1510 1508 1506 1504 1502 1500 1497 1494 1492
1530 1534 1531 1526 1530 1535 1522 1508 1505 1498 1489 1494 1504 1507 1508 1510 1510 1514 1513 1502 1493 1495 1499 1502 1507 1511 1513 1515 1518 1520 1524 1526 1522 1516 1517 1521 1523 1524 1527 1528 1530 1532 1533 1534 1535 1536 1537 1539 1539 1539 1539 1539 1540 1540 1540 1540 1539 1539 1539 1538 1537 1536 1535 1533 1532 1530 1529 1528 1526 1524 1522 1520 1518 1516 1514 1512 1510 1507 1505 1503 1501 1499 1497 1495 1492 1489
1528 1529 1530 1525 1526 1532 1526 1515 1511 1504 1496 1499 1505 1507 1509 1510 1510 1510 1500 1487 1487 1492 1494 1496 1502 1505 1508 1512 1515 1517 1518 1518 1515 1513 1514 1518 1520 1522 1524 1525 1527 1529 1530 1531 1533 1534 1535 1536 1536 1536 1536 1536 1536 1536 1536 1536 1536 1536 1535 1535 1533 1532 1531 1530 1529 1527 1526 1525 1523 1521 1519 1518 1516 1514 1511 1509 1507 1505 1503 1501 1499 1497 1494 1492 1489 1486
1532 1533 1534 1530 1528 1531 1528 1520 1513 1505 1500 1504 1507 1508 1509 1512 1513 1505 1488 1480 1486 1489 1490 1493 1496 1498 1502 1506 1508 1509 1508 1508 1509 1510 1512 1514 1517 1519 1521 1523 1524 1526 1527 1528 1530 1531 1532 1532 1532 1533 1533 1533 1533 1533 1533 1533 1533 1532 1532 1531 1530 1529 1528 1527 1525 1524 1523 1521 1520 1518 1516 1515 1513 1511 1508 1506 1504 1502 1500 1498 1496 1494 1491 1488 1486 1483
1529 1533 1536 1535 1531 1531 1532 1528 1519 1505 1498 1501 1506 1508 1510 1509 1504 1495 1485 1484 1488 1488 1490 1494 1495 1496 1499 1500 1500 1502 1502 1504 1507 1509 1510 1512 1514 1516 1518 1520 1521 1523 1524 1526 1527 1528 1529 1529 1529 1530 1530 1530 1530 1530 1530 1529 1529 1529 1528 1527 1526 1526 1525 1523 1522 1521 1520 1518 1516 1515 1513 1511 1510 1508 1505 1503 1501 1499 1497 1495 1493 1490 1488 1485 1482 1480
1522 1522 1524 1528 1529 1531 1536 1531 1512 1494 1492 1498 1503 1507 1509 1501 1491 1487 1486 1488 1488 1489 1491 1493 1494 1496 1497 1498 1499 1500 1501 1504 1505 1506 1508 1510 1511 1513 1515 1516 1517 1519 1520 1522 1523 1524 1525 1525 1526 1527 1527 1527 1527 1526 1526 1526 1525 1525 1524 1523 1523 1522 1521 1520 1519 1517 1516 1514 1513 1511 1510 1508 1506 1504 1502 1500 1497 1495 1493 1491 1489 1487 1485 1482 1479 1476
1521 1515 1514 1519 1520 1520 1521 1512 1492 1483 1489 1494 1492 1493 1495 1489 1485 1485 1486 1487 1488 1489 1490 1491 1492 1494 1495 1496 1499 1500 1501 1503 1503 1504 1506 1507 1508 1510 1511 1512 1514 1515 1516 1518 1519 1521 1522 1522 1523 1523 1524 1524 1523 1523 1522 1522 1521 1521 1520 1520 1519 1518 1517 1516 1515 1513 1512 1510 1509 1508 1506 1504 1503 1500 1498 1496 1494 1492 1490 1488 1486 1484 1482 1479 1476 1473
1511 1511 1509 1511 1511 1508 1502 1494 1488 1487 1491 1490 1485 1485 1485 1484 1485 1486 1485 1485 1487 1487 1488 1489 1490 1491 1493 1494 1496 1497 1498 1499 1500 1502 1503 1504 1506 1507 1508 1509 1511 1511 1513 1515 1516 1517 1518 1518 1519 1520 1520 1520 1519 1519 1518 1518 1517 1517 1516 1516 1516 1514 1513 1512 1510 1509 1508 1506 1505 1504 1502 1500 1499 1496 1495 1493 1490 1488 1486 1484 1482 1480 1478 1476 1473 1471
1508 1511 1510 1508 1508 1504 1493 1487 1488 1490 1489 1488 1486 1484 1484 1485 1485 1486 1485 1485 1486 1486 1487 1488 1488 1489 1491 1492 1493 1494 1495 1495 1497 1498 1499 1501 1503 1504 1505 1506 1507 1508 1510 1511 1511 1512 1513 1514 1515 1515 1515 1515 1515 1515 1515 1514 1513 1513 1512 1512 1511 1510 1509 1508 1506 1505 1504 1502 1501 1500 1498 1496 1494 1493 1491 1489 1487 1485 1483 1481 1478 1476 1475 1473 1470 1468
1507 1508 1508 1507 1507 1501 1489 1482 1484 1485 1484 1486 1485 1483 1483 1484 1483 1483 1484 1484 1484 1485 1486 1486 1487 1488 1489 1489 1490 1491 1492 1493 1494 1495 1496 1497 1498 1499 1501 1502 1503 1504 1506 1506 1507 1509 1509 1509 1510 1510 1511 1511 1511 1511 1511 1510 1509 1509 1508 1508 1507 1506 1505 1504 1502 1501 1500 1499 1497 1496 1494 1492 1490 1488 1487 1485 1483 1481 1479 1478 1476 1473 1471 1470 1467 1465
1503 1504 1505 1504 1502 1497 1486 1479 1481 1482 1481 1482 1482 1480 1480 1480 1479 1480 1481 1481 1482 1483 1483 1484 1485 1486 1486 1486 1487 1488 1489 1490 1491 1491 1493 1493 1494 1496 1497 1497 1499 1500 1501 1502 1503 1504 1504 1505 1505 1506 1506 1507 1507 1507 1507 1506 1505 1505 1504 1503 1503 1502 1500 1499 1498 1497 1496 1494 1493 1491 1490 1488 1486 1484 1482 1481 1479 1477 1476 1474 1473 1470 1469 1467 1465 1462
1502 1501 1499 1496 1496 1494 1484 1476 1477 1481 1479 1476 1476 1475 1474 1474 1475 1476 1476 1477 1478 1478 1479 1480 1481 1481 1482 1483 1484 1485 1486 1487 1488 1489 1490 1490 1491 1492 1493 1494 1495 1496 1497 1498 1499 1499 1500 1500 1501 1501 1502 1503 1503 1503 1503 1502 1502 1501 1500 1500 1498 1497 1496 1495 1494 1493 1492 1490 1489 1487 1485 1484 1482 1480 1478 1476 1475 1473 1472 1471 1469 1467 1465 1464 1462 1460
1500 1494 1492 1493 1492 1485 1475 1466 1468 1472 1469 1464 1466 1468 1467 1469 1471 1471 1471 1472 1472 1472 1474 1475 1475 1476 1477 1478 1479 1481 1481 1482 1484 1485 1486 1487 1488 1489 1490 1491 1492 1493 1494 1495 1495 1495 1496 1496 1497 1498 1498 1498 1499 1499 1498 1498 1498 1497 1496 1496 1494 1493 1492 1491 1489 1489 1487 1486 1485 1483 1481 1479 1478 1476 1474 1472 1471 1469 1468 1467 1466 1464 1462 1460 1459 1458
1485 1479 1480 1482 1476 1466 1459 1457 1461 1463 1459 1457 1460 1463 1463 1465 1466 1465 1465 1466 1466 1467 1469 1470 1470 1471 1472 1472 1474 1475 1475 1477 1479 1480 1481 1483 1484 1485 1487 1488 1489 1490 1490 1491 1491 1491 1492 1492 1493 1493 1494 1494 1495 1495 1494 1494 1494 1493 1492 1491 1490 1489 1487 1486 1485 1484 1483 1482 1481 1479 1477 1475 1474 1472 1470 1469 1467 1465 1463 1462 1461 1461 1461 1458 1456 1454